Weather History for KEIK - October, 2012

Change the Weather History Date:

Sunday, October 28, 2012

  Actual Average (KDEN) Record (KDEN)
Temperature  
Mean Temperature 43 °F 46 °F  
Max Temperature 60 °F 61 °F 80 °F (1968)
Min Temperature 26 °F 32 °F 9 °F (1917)
Degree Days  
Heating Degree Days 22 19  
Month to date heating degree days 383  
Since 1 July heating degree days 524  
Cooling Degree Days 0 0  
Month to date cooling degree days 1  
Year to date cooling degree days 765  
Moisture  
Dew Point 32 °F    
Average Humidity 77    
Maximum Humidity 97    
Minimum Humidity 29    
Precipitation  
Precipitation 0.00 in 0.02 in 0.58 in (1961)
Month to date precipitation 0.95  
Year to date precipitation 13.27  
Snow  
Snow 0.00 in - - ()
Month to date snowfall  
Since 1 July snowfall  
Since 1 September snowfall  
Snow Depth -    
Sea Level Pressure  
Sea Level Pressure 30.07 in    
Wind  
Wind Speed 2 mph (SSW)    
Max Wind Speed 12 mph    
Max Gust Speed -    
Visibility 10 miles    
Events      
T = Trace of Precipitation, MM = Missing Value Source: NWS Daily Summary

Daily Weather History Graph

Daily Weather History Graph

Search for Another Location

Airport or City:

Trip Planner

Search our weather history database for the weather conditions in past years. The results will help you decide how hot, cold, wet, or windy it might be!

Date:

Astronomy

Oct. 28, 2012 Rise Set
Actual Time 7:25 AM MDT 6:01 PM MDT
Civil Twilight 6:57 AM MDT 6:29 PM MDT
Nautical Twilight 6:25 AM MDT 7:01 PM MDT
Astronomical Twilight 5:54 AM MDT 7:33 PM MDT
Moon 5:21 PM MDT (10/28) 6:20 AM MDT (10/28)
Length of Visible Light 11h 32m
Length of Day
10h 36m
Waxing Gibbous, 99% of the Moon is Illuminated
Oct 28
Waxing Gibbous
Oct 29
Full
Nov 6
Last Quarter
Nov 13
New
Nov 20
First Quarter

Hourly Weather History & Observations

Time (MDT) Temp. Windchill Dew Point Humidity Pressure Visibility Wind Dir Wind Speed Gust Speed Precip Events Conditions
12:15 AM 29.5 °F - 28.8 °F 97% 30.12 in 10.0 mi Calm Calm - N/A   Clear
12:35 AM 29.5 °F - 28.2 °F 95% 30.11 in 10.0 mi Calm Calm - N/A   Clear
12:55 AM 29.5 °F - 28.6 °F 96% 30.11 in 10.0 mi Calm Calm - N/A   Clear
1:15 AM 29.1 °F 25.4 °F 28.2 °F 96% 30.12 in 7.0 mi SSW 3.5 mph - N/A   Clear
1:35 AM 29.3 °F - 28.0 °F 95% 30.11 in 10.0 mi Calm Calm - N/A   Clear
1:55 AM 28.4 °F - 27.7 °F 97% 30.11 in 7.0 mi Calm Calm - N/A   Clear
2:15 AM 27.7 °F - 26.6 °F 96% 30.11 in 10.0 mi Calm Calm - N/A   Clear
2:35 AM 28.0 °F - 27.3 °F 97% 30.12 in 10.0 mi Calm Calm - N/A   Clear
2:55 AM 27.5 °F 23.6 °F 26.8 °F 97% 30.11 in 10.0 mi South 3.5 mph - N/A   Clear
3:15 AM 27.7 °F 23.8 °F 27.0 °F 97% 30.11 in 10.0 mi SE 3.5 mph - N/A   Clear
3:35 AM 27.3 °F 23.4 °F 26.4 °F 96% 30.09 in 10.0 mi SSW 3.5 mph - N/A   Scattered Clouds
3:55 AM 27.9 °F 21.5 °F 27.0 °F 96% 30.08 in 10.0 mi SSW 5.8 mph - N/A   Scattered Clouds
4:15 AM 28.4 °F - 27.1 °F 95% 30.09 in 10.0 mi Calm Calm - N/A   Clear
4:35 AM 27.5 °F - 26.6 °F 96% 30.09 in 10.0 mi Calm Calm - N/A   Clear
4:55 AM 27.5 °F - 26.8 °F 97% 30.09 in 10.0 mi Calm Calm - N/A   Clear
5:15 AM 27.3 °F - 26.2 °F 96% 30.10 in 10.0 mi Calm Calm - N/A   Clear
5:35 AM 26.6 °F 22.6 °F 25.9 °F 97% 30.10 in 7.0 mi SSW 3.5 mph - N/A   Clear
5:55 AM 27.7 °F - 26.4 °F 95% 30.11 in 10.0 mi Calm Calm - N/A   Clear
6:15 AM 28.6 °F 24.8 °F 27.0 °F 94% 30.10 in 10.0 mi SSW 3.5 mph - N/A   Clear
6:35 AM 27.3 °F - 25.7 °F 94% 30.11 in 10.0 mi Calm Calm - N/A   Clear
6:55 AM 26.1 °F - 24.6 °F 94% 30.10 in 10.0 mi Calm Calm - N/A   Clear
7:15 AM 27.5 °F 21.1 °F 26.6 °F 96% 30.11 in 10.0 mi WSW 5.8 mph - N/A   Clear
7:35 AM 27.5 °F 20.2 °F 26.2 °F 95% 30.11 in 10.0 mi SSW 6.9 mph - N/A   Clear
7:55 AM 28.4 °F - 26.8 °F 94% 30.10 in 10.0 mi Calm Calm - N/A   Clear
8:15 AM 29.7 °F 26.1 °F 27.9 °F 93% 30.11 in 10.0 mi NW 3.5 mph - N/A   Clear
8:35 AM 30.4 °F 26.9 °F 28.9 °F 94% 30.10 in 10.0 mi SSW 3.5 mph - N/A   Clear
8:55 AM 32.5 °F - 30.2 °F 91% 30.09 in 10.0 mi Calm Calm - N/A   Clear
9:15 AM 33.6 °F - 30.7 °F 89% 30.09 in 10.0 mi Calm Calm - N/A   Clear
9:35 AM 37.4 °F 34.9 °F 32.7 °F 83% 30.08 in 10.0 mi SSE 3.5 mph - N/A   Clear
9:55 AM 42.4 °F 40.7 °F 32.2 °F 67% 30.08 in 10.0 mi South 3.5 mph - N/A   Clear
10:15 AM 45.7 °F 42.0 °F 31.3 °F 57% 30.07 in 10.0 mi South 6.9 mph - N/A   Clear
10:35 AM 48.6 °F - 30.4 °F 50% 30.06 in 10.0 mi South 8.1 mph - N/A   Clear
11:15 AM 56.1 °F - 28.0 °F 34% 30.05 in 10.0 mi South 10.4 mph - N/A   Clear
11:35 AM 59.2 °F - 27.1 °F 29% 30.05 in 10.0 mi South 6.9 mph - N/A   Clear
11:55 AM 60.6 °F - 32.9 °F 35% 30.04 in 10.0 mi NNE 9.2 mph - N/A   Clear
12:15 PM 59.0 °F - 32.2 °F 36% 30.03 in 10.0 mi Calm Calm - N/A   Clear
12:35 PM 58.8 °F - 32.4 °F 37% 30.03 in 10.0 mi NNE 3.5 mph - N/A   Clear
12:55 PM 59.5 °F - 32.0 °F 35% 30.02 in 10.0 mi North 4.6 mph - N/A   Clear
1:15 PM 59.5 °F - 36.1 °F 42% 30.02 in 10.0 mi NNE 11.5 mph - N/A   Clear
1:35 PM 56.7 °F - 35.4 °F 45% 30.01 in 10.0 mi NNW 3.5 mph - N/A   Clear
1:55 PM 58.5 °F - 35.6 °F 42% 30.00 in 10.0 mi Calm Calm - N/A   Clear
2:15 PM 58.5 °F - 35.1 °F 42% 30.00 in 10.0 mi Calm Calm - N/A   Clear
2:35 PM 59.0 °F - 35.2 °F 41% 30.00 in 10.0 mi North 6.9 mph - N/A   Clear
2:55 PM 57.7 °F - 36.9 °F 46% 30.00 in 10.0 mi Calm Calm - N/A   Clear
3:15 PM 57.0 °F - 36.7 °F 47% 30.01 in 10.0 mi North 4.6 mph - N/A   Clear
3:35 PM 59.0 °F - 36.3 °F 43% 30.01 in 10.0 mi North 3.5 mph - N/A   Clear
3:55 PM 59.5 °F - 35.4 °F 41% 30.01 in 10.0 mi North 4.6 mph - N/A   Clear
4:15 PM 58.8 °F - 36.0 °F 42% 30.01 in 10.0 mi NE 4.6 mph - N/A   Clear
4:35 PM 57.6 °F - 39.2 °F 50% 30.01 in 10.0 mi ENE 11.5 mph - N/A   Clear
4:55 PM 54.5 °F - 41.0 °F 60% 30.01 in 10.0 mi East 8.1 mph - N/A   Clear
5:15 PM 53.6 °F - 40.1 °F 60% 30.02 in 10.0 mi Calm Calm - N/A   Clear
5:35 PM 53.8 °F - 39.0 °F 57% 30.02 in 10.0 mi SE 4.6 mph - N/A   Clear
5:55 PM 51.1 °F - 39.0 °F 63% 30.03 in 10.0 mi NNW 3.5 mph - N/A   Clear
6:15 PM 46.4 °F - 38.5 °F 74% 30.04 in 10.0 mi Calm Calm - N/A   Clear
6:35 PM 46.0 °F 43.9 °F 39.6 °F 78% 30.04 in 10.0 mi SSW 4.6 mph - N/A   Clear
6:55 PM 43.3 °F - 38.8 °F 84% 30.05 in 10.0 mi Calm Calm - N/A   Clear
7:15 PM 42.6 °F - 38.3 °F 85% 30.06 in 10.0 mi Calm Calm - N/A   Clear
7:35 PM 41.9 °F - 38.7 °F 88% 30.05 in 10.0 mi Calm Calm - N/A   Clear
7:55 PM 41.4 °F - 38.5 °F 89% 30.06 in 10.0 mi Calm Calm - N/A   Clear
8:15 PM 41.0 °F 39.0 °F 38.3 °F 90% 30.07 in 10.0 mi North 3.5 mph - N/A   Clear
8:35 PM 38.7 °F - 37.2 °F 95% 30.07 in 7.0 mi Calm Calm - N/A   Clear
8:55 PM 38.3 °F - 36.7 °F 94% 30.08 in 7.0 mi Calm Calm - N/A   Clear
9:15 PM 37.4 °F 34.9 °F 36.0 °F 95% 30.08 in 7.0 mi SSW 3.5 mph - N/A   Clear
9:35 PM 37.6 °F - 36.5 °F 96% 30.08 in 7.0 mi Calm Calm - N/A   Clear
9:55 PM 37.4 °F 34.9 °F 36.0 °F 95% 30.09 in 7.0 mi SSW 3.5 mph - N/A   Clear
10:15 PM 39.6 °F 36.3 °F 36.9 °F 90% 30.09 in 10.0 mi SE 4.6 mph - N/A   Clear
10:55 PM 38.7 °F - 36.3 °F 91% 30.09 in 10.0 mi Calm Calm - N/A   Clear
11:15 PM 38.1 °F - 35.8 °F 91% 30.09 in 10.0 mi Calm Calm - N/A   Clear
11:35 PM 36.3 °F - 34.7 °F 94% 30.09 in 10.0 mi Calm Calm - N/A   Clear
11:55 PM 36.5 °F 33.9 °F 34.9 °F 94% 30.09 in 10.0 mi SSW 3.5 mph - N/A   Clear